This is the latest recevied weather packets stored in our database for station/object KA7KDX-4. If no packets are shown the sender has not sent any weather packets the latest 1 day(s).
| Time | Temp. | Humidity | Pressure | Rain* | Wind** | Luminosity | Snow |
|---|---|---|---|---|---|---|---|
| 1778010906 | 16.67° C | 37% | 1004.5 hPa | 0 mm | 3.13 m/s, 184° | - | - |
| 1778010607 | 16.67° C | 38% | 1004.5 hPa | 0 mm | 2.24 m/s, 252° | - | - |
| 1778010306 | 16.67° C | 37% | 1004.5 hPa | 0 mm | 1.79 m/s, 146° | - | - |
| 1778010005 | 16.67° C | 37% | 1004.6 hPa | 0 mm | 1.79 m/s, 255° | - | - |
| 1778009706 | 16.67° C | 37% | 1004.6 hPa | 0 mm | 1.79 m/s, 162° | - | - |
| 1778009405 | 16.67° C | 37% | 1004.6 hPa | 0 mm | 1.34 m/s, 227° | - | - |
| 1778009105 | 16.67° C | 37% | 1004.6 hPa | 0 mm | 1.79 m/s, 197° | - | - |
| 1778008806 | 16.67° C | 37% | 1004.6 hPa | 0 mm | 3.13 m/s, 177° | - | - |
| 1778008505 | 16.67° C | 37% | 1004.6 hPa | 0 mm | 3.13 m/s, 189° | - | - |
| 1778008206 | 16.67° C | 37% | 1004.7 hPa | 0 mm | 3.13 m/s, 171° | - | - |
| 1778007906 | 16.67° C | 38% | 1004.7 hPa | 0 mm | 1.79 m/s, 256° | - | - |
| 1778007606 | 16.67° C | 38% | 1004.7 hPa | 0 mm | 2.24 m/s, 274° | - | - |
| 1778007306 | 16.67° C | 37% | 1004.6 hPa | 0 mm | 2.68 m/s, 188° | - | - |
| 1778007005 | 16.67° C | 38% | 1004.8 hPa | 0 mm | 1.79 m/s, 213° | - | - |
| 1778006705 | 16.67° C | 38% | 1004.8 hPa | 0 mm | 3.58 m/s, 199° | - | - |
| 1778006405 | 16.67° C | 38% | 1004.7 hPa | 0 mm | 3.58 m/s, 192° | - | - |
| 1778006105 | 16.11° C | 38% | 1004.9 hPa | 0 mm | 3.58 m/s, 190° | - | - |
| 1778005805 | 16.11° C | 39% | 1004.8 hPa | 0 mm | 4.02 m/s, 201° | - | - |
| 1778005505 | 16.11° C | 39% | 1004.9 hPa | 0 mm | 3.58 m/s, 196° | - | - |
| 1778005205 | 16.11° C | 39% | 1004.9 hPa | 0 mm | 3.58 m/s, 193° | - | - |
| 1778004906 | 16.11° C | 39% | 1005 hPa | 0 mm | 4.02 m/s, 185° | - | - |
| 1778004606 | 15.56° C | 39% | 1005 hPa | 0 mm | 4.02 m/s, 194° | - | - |
| 1778004306 | 15.56° C | 38% | 1004.9 hPa | 0 mm | 4.47 m/s, 195° | - | - |
| 1778004006 | 15.56° C | 38% | 1005.1 hPa | 0 mm | 3.58 m/s, 192° | - | - |
| 1778003705 | 15.56° C | 38% | 1005.3 hPa | 0 mm | 3.58 m/s, 186° | - | - |
* Rain latest hour (hover to see other rain measurements)
** Current wind speed in m/s (hover to see current wind gust speed)